Hourly Weather Roundup
Issued by NWS Central Illinois

Home | Current Version | Previous Version | Text Only | Print | Product List | Glossary On
Versions: 1 2 3 4 5 6 7 8 9 10 11 12 13 14 15 16 17 18 19 20 21 22 23 24 25 26 27 28 29 30 31 32 33 34 35 36 37 38 39 40 41 42 43 44 45 46 47 48 49 50
000
NZUS43 KILX 302010
HWRILX

AREA WEATHER ROUNDUP
NATIONAL WEATHER SERVICE, LINCOLN IL
300 PM CDT WED JUL 30 2014


CITY           SKY/WX    TMP DP  RH WIND       PRES   REMARKS
BLOOMINGTON    MOSUNNY   77  56  48 NW10      30.07S
CHAMPAIGN      MOSUNNY   79  32  18 W13       30.06F
DECATUR        PTSUNNY   81  58  45 NW7       30.07S HX  81
FLORA          SUNNY     81  52  36 W6        30.07S HX  80
GALESBURG      SUNNY     82  60  46 NW8       30.08R HX  82
JACKSONVILLE   MOSUNNY   80  59  48 W6        30.08F HX  81
LACON          MOSUNNY   80  58  46 NW7       30.04S HX  80
LAWRENCEVILLE  SUNNY     80  60  50 W8        30.07F HX  81
LITCHFIELD     SUNNY     80  55  41 NW5       30.07F HX  80
$$


CITY           SKY/WX    TMP DP  RH WIND       PRES   REMARKS
LINCOLN        MOSUNNY   82  57  42 NW6       30.03F HX  82
MACOMB         MOSUNNY   78  59  52 NW7       30.10S
MATTOON        MOSUNNY   79  57  46 NW8       30.06S HX  80
MT CARMEL AP   SUNNY     82  57  42 NW6       30.07S HX  82
OLNEY-NOBLE AP SUNNY     79  59  50 CALM      30.07F HX  80
PARIS          MOSUNNY   78  62  56 W8        30.06S HX  80
PEORIA         MOSUNNY   83  54  36 W10       30.06S HX  82
PONTIAC        SUNNY     81  61  50 W9        30.04S HX  81
RANTOUL        MOSUNNY   79  58  48 NW8       30.06S HX  80
ROBINSON       SUNNY     80  63  55 W9        30.07F HX  82
SPRINGFIELD    MOSUNNY   81  60  48 NW7       30.07F HX  82
TAYLORVILLE    PTSUNNY   79  59  50 W7        30.07S HX  80
$$

...REGIONAL REPORTS...


CITY           SKY/WX    TMP DP  RH WIND       PRES   REMARKS
CHICAGO O`HARE PTSUNNY   76  57  51 NE8       30.02R
KANKAKEE       PTSUNNY   78  62  56 W13       30.04S HX  80
MOLINE         MOSUNNY   82  57  42 W12       30.05S HX  82
MOUNT VERNON   MOSUNNY   81  57  44 W6        30.08F HX  81
PITTSFIELD     MOSUNNY   81  54  39 NW3       30.09S HX  80
QUINCY         SUNNY     80  55  42 N7        30.08F HX  80
ROCKFORD       MOSUNNY   79  57  46 W13       30.04F HX  80
$$


CITY           SKY/WX    TMP DP  RH WIND       PRES   REMARKS
BURLINGTON     SUNNY     79  58  48 W6        30.07F HX  80
CEDAR RAPIDS   MOSUNNY   79  58  48 NW10      30.07S HX  80
DES MOINES     MOSUNNY   82  55  39 NE7       30.09F HX  81
KIRKSVILLE     MOSUNNY   79  55  43 NE7       30.10F
OTTUMWA        MOSUNNY   79  58  48 N10       30.09F HX  80
ST LOUIS       PTSUNNY   83  55  38 NE7       30.07F HX  82
$$


CITY           SKY/WX    TMP DP  RH WIND       PRES   REMARKS
TERRE HAUTE    CLOUDY    79  59  50 W10G17    30.05S HX  80
EVANSVILLE     SUNNY     83  53  35 VRB7      30.08S HX  82
INDIANAPOLIS   PTSUNNY   76  58  53 W12       30.04F
LAFAYETTE      MOSUNNY   78  60  53 W8        30.02F
MADISON        MOSUNNY   76  55  48 N10       30.04F
MILWAUKEE      MOSUNNY   68  57  68 E8        30.04F
$$




USA.gov is the U.S. government's official web portal to all federal, state and local government web resources and services.